Regional Weather Roundup
Issued by NWS

Home | Current Version | Previous Version | Text Only | Print | Product List | Glossary Off
Versions: 1 2 3 4 5 6 7 8 9 10 11 12 13 14 15 16 17 18 19 20 21 22 23 24 25 26 27 28 29 30 31 32 33 34 35 36 37 38 39 40 41 42 43 44 45 46 47 48 49 50

000
ASUS43 KFSD 262002
RWRSD

WEATHER ROUNDUP FOR SOUTH DAKOTA
NATIONAL WEATHER SERVICE SIOUX FALLS SD
300 PM CDT MON SEP 26 2016

NOTE: "FAIR" INDICATES FEW OR NO CLOUDS BELOW 12,000 FEET WITH NO
SIGNIFICANT WEATHER AND/OR OBSTRUCTIONS TO VISIBILITY.


SDZ001>005-009-010-012>017-262100-
NORTHWEST AND NORTH CENTRAL SOUTH DAKOTA

CITY           SKY/WX    TMP DP  RH WIND       PRES   REMARKS
BUFFALO          N/A     68  39  34 NW30      30.14F
FAITH            N/A     72  41  32 NW15G24   30.16
MOBRIDGE       SUNNY     72  34  24 NW18G28   30.10F
$$

SDZ012>016-024>037-041>051-057-063-072>074-262100-
SOUTHWEST AND SOUTH CENTRAL SOUTH DAKOTA

CITY           SKY/WX    TMP DP  RH WIND       PRES   REMARKS
RAPID CTY ARPT SUNNY     72  41  32 N23G31    30.21F
PIERRE         SUNNY     72  38  29 NW15G21   30.13F
CUSTER         SUNNY     64  38  38 NW9G18    30.31F
ELLSWORTH AFB  SUNNY     72  42  33 NW21G32   30.21F
PHILIP         SUNNY     74  40  29 NW17G26   30.16F
PINE RIDGE     SUNNY     74  40  29 VRB5      30.22F
WINNER         FAIR      75  39  27 NW18G24   30.17F
$$

SDZ004>011-016>023-039-040-262100-
NORTHEAST SOUTH DAKOTA

CITY           SKY/WX    TMP DP  RH WIND       PRES   REMARKS
ABERDEEN       SUNNY     70  29  21 NW20G30   30.06F
WATERTOWN      SUNNY     66  33  29 NW23G32   30.04F
SISSETON         N/A     69  30  23 NW28G38   29.98F
$$

SDZ017-020-022-023-036>040-048>070-262100-
SOUTHEAST SOUTH DAKOTA

CITY           SKY/WX    TMP DP  RH WIND       PRES   REMARKS
SIOUX FALLS    MOSUNNY   70  39  32 W18G32    30.08F
HURON          SUNNY     73  32  22 NW22G33   30.07F
CHAMBERLAIN    SUNNY     74  38  27 NW20      30.14F
MITCHELL       MOSUNNY   74  35  24 NW14G28   30.10F
YANKTON        SUNNY     72  41  33 NW22G28   30.09F
$$

ABBREVIATIONS USED IN REMARKS
   TC - TEMPERATURE IN CELSIUS
  WCI - WIND CHILL INDEX
   HX - HEAT INDEX
  VSB - VISIBILITY




USA.gov is the U.S. government's official web portal to all federal, state and local government web resources and services.